Bibliothèque

Musique » Peng Qing »

I Can Only Love You Ce titre fait partie des coups de cœur de ivorydewi

56 écoutes | Se rendre sur la page du titre

Du Samedi 21 mai 2011 au Lundi 21 mai 2012 Tout le temps

Titres (56)
Titre Album Durée Date
I Can Only Love You 3:36 19 sept. 2011, 4h04m
I Can Only Love You 3:36 2 nov. 2011, 6h14m
I Can Only Love You 3:36 2 nov. 2011, 6h18m
I Can Only Love You 3:36 2 nov. 2011, 6h21m
I Can Only Love You 3:36 2 nov. 2011, 6h25m
I Can Only Love You 3:36 2 nov. 2011, 6h28m
I Can Only Love You 3:36 2 nov. 2011, 6h32m
I Can Only Love You 3:36 2 nov. 2011, 6h36m
I Can Only Love You 3:36 2 nov. 2011, 6h39m
I Can Only Love You 3:36 2 nov. 2011, 6h43m
I Can Only Love You 3:36 2 nov. 2011, 6h46m
I Can Only Love You 3:36 2 nov. 2011, 6h50m
I Can Only Love You 3:36 2 nov. 2011, 6h54m
I Can Only Love You 3:36 2 nov. 2011, 6h57m
I Can Only Love You 3:36 2 nov. 2011, 7h01m
I Can Only Love You 3:36 2 nov. 2011, 7h04m
I Can Only Love You 3:36 2 nov. 2011, 7h08m
I Can Only Love You 3:36 2 nov. 2011, 7h12m
I Can Only Love You 3:36 2 nov. 2011, 7h15m
I Can Only Love You 3:36 2 nov. 2011, 7h19m
I Can Only Love You 3:36 2 nov. 2011, 7h23m
I Can Only Love You 3:36 2 nov. 2011, 7h26m
I Can Only Love You 3:36 2 nov. 2011, 7h30m
I Can Only Love You 3:36 2 nov. 2011, 7h33m
I Can Only Love You 3:36 2 nov. 2011, 7h37m
I Can Only Love You 3:36 2 nov. 2011, 7h41m
I Can Only Love You 3:36 2 nov. 2011, 7h44m
I Can Only Love You 3:36 3 déc. 2011, 1h41m
I Can Only Love You 3:36 3 déc. 2011, 1h53m
I Can Only Love You 3:36 3 déc. 2011, 2h05m
I Can Only Love You 3:36 3 déc. 2011, 2h18m
I Can Only Love You 3:36 3 déc. 2011, 2h30m
I Can Only Love You 3:36 3 déc. 2011, 2h42m
I Can Only Love You 3:36 3 déc. 2011, 2h54m
I Can Only Love You 3:36 3 déc. 2011, 3h06m
I Can Only Love You 3:36 3 déc. 2011, 3h18m
I Can Only Love You 3:36 3 déc. 2011, 3h30m
I Can Only Love You 3:36 3 déc. 2011, 3h42m
I Can Only Love You 3:36 3 déc. 2011, 3h54m
I Can Only Love You 3:36 3 déc. 2011, 4h06m
I Can Only Love You 3:36 3 déc. 2011, 4h18m
I Can Only Love You 3:36 3 déc. 2011, 4h30m
I Can Only Love You 3:36 3 déc. 2011, 4h42m
I Can Only Love You 3:36 3 déc. 2011, 4h54m
I Can Only Love You 3:36 3 déc. 2011, 5h06m
I Can Only Love You 3:36 3 déc. 2011, 5h18m
I Can Only Love You 3:36 3 déc. 2011, 5h30m
I Can Only Love You 3:36 3 déc. 2011, 5h42m
I Can Only Love You 3:36 3 déc. 2011, 5h55m
I Can Only Love You 3:36 19 jan. 2012, 6h35m
I Can Only Love You 3:36 19 jan. 2012, 8h57m
I Can Only Love You 3:36 20 jan. 2012, 4h22m
I Can Only Love You 3:36 20 jan. 2012, 6h44m
I Can Only Love You 3:36 20 jan. 2012, 9h17m
I Can Only Love You 3:36 21 jan. 2012, 3h57m
I Can Only Love You 3:36 22 fév. 2012, 3h28m